| time (UTC) | temp F | wind direction | speed MPH | gust MPH | rain 1hr in | rain 24hr in | rain mn in | humidity % | barometer mb |
| 20260901023646 | 50 | 259 | 0.0 | 2.0 | 0.07 | 0.11 | 0.11 | 94 | 1034.5 |
| 20260901023141 | 50 | 179 | 4.0 | 6.0 | 0.00 | 0.10 | 0.10 | 95 | 1034.6 |
| 20260901022636 | 50 | 193 | 4.0 | 8.0 | 0.05 | 0.10 | 0.10 | 95 | 1034.5 |
| 20260901022131 | 50 | 248 | 4.0 | 7.0 | 0.12 | 0.10 | 0.10 | 95 | 1034.5 |
| 20260901021621 | 50 | 241 | 4.0 | 7.0 | 0.19 | 0.09 | 0.09 | 95 | 1034.5 |
| 20260901021117 | 50 | 237 | 4.0 | 7.0 | 0.19 | 0.07 | 0.07 | 95 | 1034.5 |
| 20260901020613 | 51 | 252 | 6.0 | 8.0 | 0.19 | 0.05 | 0.05 | 94 | 1034.5 |
| 20260901020108 | 51 | 199 | 5.0 | 9.0 | 0.24 | 0.04 | 0.04 | 92 | 1034.0 |
| 20260901015603 | 52 | 239 | 4.0 | 8.0 | 0.12 | 0.02 | 0.02 | 90 | 1034.0 |
| 20260901015102 | 53 | 206 | 5.0 | 7.0 | 0.00 | 0.00 | 0.00 | 87 | 1034.0 |
| 20260901014557 | 55 | 246 | 8.0 | 10.0 | 0.00 | 0.00 | 0.00 | 79 | 1034.0 |
| 20260901014053 | 56 | 248 | 2.0 | 4.0 | 0.00 | 0.00 | 0.00 | 74 | 1033.7 |
| 20260901013549 | 56 | 195 | 2.0 | 3.0 | 0.00 | 0.00 | 0.00 | 76 | 1033.7 |
| 20260901013044 | 57 | 231 | 2.0 | 2.0 | 0.00 | 0.00 | 0.00 | 75 | 1033.5 |
| 20260901012544 | 57 | 242 | 0.0 | 1.0 | 0.00 | 0.00 | 0.00 | 69 | 1033.6 |
| 20260901012039 | 57 | 247 | 2.0 | 2.0 | 0.00 | 0.00 | 0.00 | 70 | 1033.2 |
| 20260901011536 | 57 | 298 | 2.0 | 2.0 | 0.00 | 0.00 | 0.00 | 67 | 1033.3 |
| 20260901011033 | 57 | 290 | 0.0 | 3.0 | 0.00 | 0.00 | 0.00 | 68 | 1033.1 |
| 20260901010528 | 57 | 296 | 1.0 | 4.0 | 0.00 | 0.00 | 0.00 | 68 | 1032.7 |
| 20260901010028 | 58 | 298 | 2.0 | 3.0 | 0.00 | 0.00 | 0.00 | 69 | 1032.8 |
| 20260901005522 | 58 | 273 | 0.0 | 2.0 | 0.00 | 0.00 | 0.00 | 69 | 1032.9 |
| 20260901005017 | 58 | 316 | 2.0 | 2.0 | 0.00 | 0.00 | 0.00 | 68 | 1032.9 |
| 20260901004512 | 58 | 284 | 2.0 | 2.0 | 0.00 | 0.00 | 0.00 | 69 | 1032.9 |
| 20260901004006 | 58 | 283 | 1.0 | 3.0 | 0.00 | 0.00 | 0.00 | 69 | 1032.9 |
| 20260901003502 | 58 | 281 | 2.0 | 2.0 | 0.00 | 0.00 | 0.00 | 69 | 1032.9 |
| 20260901002959 | 59 | 348 | 4.0 | 6.0 | 0.00 | 0.00 | 0.00 | 68 | 1033.2 |
| 20260901002454 | 59 | 298 | 1.0 | 3.0 | 0.00 | 0.00 | 0.00 | 68 | 1033.2 |
| 20260901001948 | 60 | 304 | 4.0 | 8.0 | 0.00 | 0.00 | 0.00 | 64 | 1033.3 |
| 20260901001444 | 60 | 314 | 1.0 | 3.0 | 0.00 | 0.00 | 0.00 | 62 | 1033.1 |
| 20260901000939 | 61 | 326 | 1.0 | 3.0 | 0.00 | 0.00 | 0.00 | 63 | 1033.2 |
| 20260901000435 | 60 | 276 | 1.0 | 2.0 | 0.00 | 0.00 | 0.00 | 58 | 1033.3 |
| 20260831235933 | 60 | 270 | 0.0 | 1.0 | 0.00 | 0.00 | 0.00 | 65 | 1033.6 |
| 20260831235428 | 61 | 254 | 1.0 | 1.0 | 0.00 | 0.00 | 0.00 | 63 | 1033.6 |
| 20260831234923 | 62 | 352 | 2.0 | 3.0 | 0.00 | 0.00 | 0.00 | 55 | 1033.6 |
| 20260831234418 | 62 | 278 | 0.0 | 2.0 | 0.00 | 0.00 | 0.00 | 57 | 1033.3 |
| 20260831233913 | 63 | 264 | 0.0 | 6.0 | 0.00 | 0.00 | 0.00 | 52 | 1033.2 |
| 20260831233408 | 63 | 318 | 2.0 | 8.0 | 0.00 | 0.00 | 0.00 | 52 | 1033.2 |
| 20260831232904 | 63 | 269 | 0.0 | 2.0 | 0.00 | 0.00 | 0.00 | 52 | 1032.9 |
| 20260831232400 | 63 | 8 | 4.0 | 6.0 | 0.00 | 0.00 | 0.00 | 52 | 1032.9 |
| 20260831231855 | 64 | 19 | 4.0 | 6.0 | 0.00 | 0.00 | 0.00 | 51 | 1033.1 |
| 20260831231352 | 63 | 297 | 1.0 | 6.0 | 0.00 | 0.00 | 0.00 | 52 | 1032.9 |
| 20260831230847 | 63 | 326 | 2.0 | 7.0 | 0.00 | 0.00 | 0.00 | 51 | 1033.1 |
| 20260831230341 | 64 | 298 | 1.0 | 10.0 | 0.00 | 0.00 | 0.00 | 53 | 1032.9 |
| 20260831225836 | 64 | 325 | 2.0 | 13.0 | 0.00 | 0.00 | 0.00 | 53 | 1032.9 |
| 20260831225330 | 64 | 0 | 3.0 | 4.0 | 0.00 | 0.00 | 0.00 | 51 | 1032.9 |
| 20260831224826 | 65 | 343 | 3.0 | 8.0 | 0.00 | 0.00 | 0.00 | 51 | 1033.1 |
| 20260831224321 | 64 | 339 | 1.0 | 2.0 | 0.00 | 0.00 | 0.00 | 53 | 1033.2 |
| 20260831223816 | 64 | 341 | 3.0 | 8.0 | 0.00 | 0.00 | 0.00 | 52 | 1033.2 |
| 20260831223312 | 65 | 96 | 1.0 | 2.0 | 0.00 | 0.00 | 0.00 | 52 | 1033.3 |
| 20260831222809 | 64 | 255 | 1.0 | 3.0 | 0.00 | 0.00 | 0.00 | 53 | 1033.2 |
| 20260831222306 | 64 | 312 | 4.0 | 6.0 | 0.00 | 0.00 | 0.00 | 53 | 1033.1 |
| 20260831221759 | 66 | 341 | 1.0 | 3.0 | 0.00 | 0.00 | 0.00 | 51 | 1033.1 |
| 20260831221254 | 65 | 304 | 3.0 | 4.0 | 0.00 | 0.00 | 0.00 | 51 | 1033.3 |
| 20260831220755 | 65 | 20 | 6.0 | 7.0 | 0.00 | 0.00 | 0.00 | 51 | 1033.3 |
| 20260831220250 | 65 | 348 | 2.0 | 9.0 | 0.00 | 0.00 | 0.00 | 52 | 1033.3 |
| 20260831215749 | 64 | 269 | 0.0 | 4.0 | 0.00 | 0.00 | 0.00 | 53 | 1033.5 |
| 20260831215246 | 64 | 248 | 2.0 | 3.0 | 0.00 | 0.00 | 0.00 | 54 | 1033.3 |
| 20260831214742 | 64 | 65 | 6.0 | 9.0 | 0.00 | 0.00 | 0.00 | 53 | 1033.2 |
| 20260831214239 | 64 | 299 | 1.0 | 4.0 | 0.00 | 0.00 | 0.00 | 53 | 1033.5 |
| 20260831213735 | 64 | 0 | 2.0 | 10.0 | 0.00 | 0.00 | 0.00 | 53 | 1033.2 |
| 20260831213232 | 65 | 203 | 2.0 | 4.0 | 0.00 | 0.00 | 0.00 | 51 | 1033.3 |
| 20260831212731 | 66 | 76 | 2.0 | 8.0 | 0.00 | 0.00 | 0.00 | 52 | 1033.3 |
| 20260831212228 | 66 | 50 | 5.0 | 7.0 | 0.00 | 0.00 | 0.00 | 51 | 1033.5 |
| 20260831211726 | 65 | 348 | 5.0 | 10.0 | 0.00 | 0.00 | 0.00 | 52 | 1033.6 |
| 20260831211222 | 66 | 88 | 6.0 | 9.0 | 0.00 | 0.00 | 0.00 | 50 | 1033.6 |
| 20260831210716 | 68 | 277 | 2.0 | 8.0 | 0.00 | 0.00 | 0.00 | 50 | 1033.7 |
| 20260831210213 | 66 | 228 | 1.0 | 4.0 | 0.00 | 0.00 | 0.00 | 50 | 1033.6 |
| 20260831205712 | 67 | 311 | 3.0 | 6.0 | 0.00 | 0.00 | 0.00 | 50 | 1034.0 |
| 20260831205208 | 67 | 343 | 3.0 | 4.0 | 0.00 | 0.00 | 0.00 | 51 | 1033.9 |
| 20260831204703 | 65 | 28 | 2.0 | 8.0 | 0.00 | 0.00 | 0.00 | 52 | 1033.6 |
| 20260831204202 | 65 | 84 | 3.0 | 7.0 | 0.00 | 0.00 | 0.00 | 53 | 1033.9 |
| 20260831203701 | 65 | 257 | 3.0 | 7.0 | 0.00 | 0.00 | 0.00 | 52 | 1033.7 |
| 20260831203156 | 65 | 101 | 4.0 | 8.0 | 0.00 | 0.00 | 0.00 | 53 | 1034.0 |
| 20260831202654 | 65 | 304 | 2.0 | 4.0 | 0.00 | 0.00 | 0.00 | 53 | 1033.9 |
| 20260831202149 | 66 | 226 | 6.0 | 9.0 | 0.00 | 0.00 | 0.00 | 53 | 1034.3 |
| 20260831201648 | 66 | 135 | 7.0 | 8.0 | 0.00 | 0.00 | 0.00 | 52 | 1033.9 |
| 20260831201143 | 67 | 199 | 4.0 | 8.0 | 0.00 | 0.00 | 0.00 | 51 | 1034.1 |
| 20260831200639 | 66 | 94 | 5.0 | 7.0 | 0.00 | 0.00 | 0.00 | 52 | 1034.3 |
| 20260831200138 | 64 | 99 | 3.0 | 4.0 | 0.00 | 0.00 | 0.00 | 52 | 1034.5 |
| 20260831195634 | 65 | 155 | 3.0 | 6.0 | 0.00 | 0.00 | 0.00 | 52 | 1034.1 |
| 20260831195129 | 64 | 246 | 1.0 | 7.0 | 0.00 | 0.00 | 0.00 | 53 | 1034.3 |
| 20260831194624 | 64 | 330 | 2.0 | 4.0 | 0.00 | 0.00 | 0.00 | 52 | 1034.4 |
| 20260831194119 | 64 | 180 | 3.0 | 8.0 | 0.00 | 0.00 | 0.00 | 53 | 1034.4 |
| 20260831193614 | 65 | 289 | 1.0 | 6.0 | 0.00 | 0.00 | 0.00 | 52 | 1034.5 |
| 20260831193109 | 64 | 242 | 2.0 | 4.0 | 0.00 | 0.00 | 0.00 | 51 | 1034.5 |
| 20260831192604 | 64 | 284 | 0.0 | 2.0 | 0.00 | 0.00 | 0.00 | 51 | 1034.9 |
| 20260831192059 | 65 | 52 | 3.0 | 8.0 | 0.00 | 0.00 | 0.00 | 50 | 1034.4 |
| 20260831191555 | 65 | 64 | 6.0 | 9.0 | 0.00 | 0.00 | 0.00 | 49 | 1034.5 |
| 20260831191050 | 64 | 242 | 2.0 | 6.0 | 0.00 | 0.00 | 0.00 | 50 | 1034.6 |
| 20260831190546 | 64 | 348 | 6.0 | 7.0 | 0.00 | 0.00 | 0.00 | 50 | 1035.0 |
| 20260831190044 | 64 | 1 | 1.0 | 7.0 | 0.00 | 0.00 | 0.00 | 51 | 1035.0 |
| 20260831185540 | 64 | 293 | 1.0 | 2.0 | 0.00 | 0.00 | 0.00 | 53 | 1034.9 |
| 20260831185036 | 64 | 290 | 3.0 | 4.0 | 0.00 | 0.00 | 0.00 | 51 | 1034.9 |
| 20260831184530 | 65 | 94 | 2.0 | 7.0 | 0.00 | 0.00 | 0.00 | 51 | 1035.2 |
| 20260831184026 | 64 | 59 | 5.0 | 7.0 | 0.00 | 0.00 | 0.00 | 52 | 1034.9 |
| 20260831183525 | 64 | 53 | 2.0 | 4.0 | 0.00 | 0.00 | 0.00 | 53 | 1035.2 |
| 20260831183024 | 63 | 259 | 1.0 | 3.0 | 0.00 | 0.00 | 0.00 | 53 | 1035.2 |
| 20260831182519 | 63 | 219 | 2.0 | 2.0 | 0.00 | 0.00 | 0.00 | 52 | 1035.2 |
| 20260831182014 | 62 | 275 | 2.0 | 4.0 | 0.00 | 0.00 | 0.00 | 53 | 1035.2 |
| 20260831181509 | 62 | 3 | 2.0 | 3.0 | 0.00 | 0.00 | 0.00 | 54 | 1035.2 |
| 20260831181004 | 63 | 277 | 1.0 | 3.0 | 0.00 | 0.00 | 0.00 | 53 | 1035.3 |
| 20260831180458 | 63 | 97 | 3.0 | 7.0 | 0.00 | 0.00 | 0.00 | 52 | 1035.0 |
| 20260831175958 | 64 | 318 | 2.0 | 4.0 | 0.00 | 0.00 | 0.00 | 51 | 1035.4 |
| 20260831175454 | 64 | 201 | 2.0 | 4.0 | 0.00 | 0.00 | 0.00 | 50 | 1035.4 |
| 20260831174950 | 65 | 280 | 1.0 | 6.0 | 0.00 | 0.00 | 0.00 | 49 | 1035.4 |
| 20260831174440 | 64 | 262 | 0.0 | 1.0 | 0.00 | 0.00 | 0.00 | 51 | 1035.3 |
| 20260831173939 | 63 | 274 | 2.0 | 3.0 | 0.00 | 0.00 | 0.00 | 53 | 1035.4 |
| 20260831173438 | 63 | 103 | 2.0 | 4.0 | 0.00 | 0.00 | 0.00 | 51 | 1035.4 |
| 20260831172934 | 63 | 153 | 1.0 | 6.0 | 0.00 | 0.00 | 0.00 | 52 | 1035.4 |
| 20260831172429 | 63 | 224 | 2.0 | 2.0 | 0.00 | 0.00 | 0.00 | 49 | 1035.6 |
| 20260831171924 | 63 | 261 | 1.0 | 3.0 | 0.00 | 0.00 | 0.00 | 53 | 1035.4 |
| 20260831171420 | 62 | 221 | 1.0 | 3.0 | 0.00 | 0.00 | 0.00 | 51 | 1035.6 |
| 20260831170916 | 63 | 294 | 1.0 | 2.0 | 0.00 | 0.00 | 0.00 | 51 | 1035.3 |
| 20260831170412 | 62 | 286 | 3.0 | 3.0 | 0.00 | 0.00 | 0.00 | 50 | 1035.4 |
| 20260831165909 | 63 | 44 | 2.0 | 6.0 | 0.00 | 0.00 | 0.00 | 51 | 1035.6 |
| 20260831165405 | 63 | 59 | 3.0 | 8.0 | 0.00 | 0.00 | 0.00 | 50 | 1035.3 |
| 20260831164901 | 63 | 236 | 3.0 | 8.0 | 0.00 | 0.00 | 0.00 | 50 | 1035.4 |
| 20260831164357 | 64 | 282 | 1.0 | 2.0 | 0.00 | 0.00 | 0.00 | 49 | 1035.2 |
| 20260831163852 | 64 | 320 | 2.0 | 4.0 | 0.00 | 0.00 | 0.00 | 49 | 1035.3 |
| 20260831163347 | 64 | 128 | 3.0 | 3.0 | 0.00 | 0.00 | 0.00 | 47 | 1035.4 |
| 20260831162846 | 64 | 238 | 1.0 | 2.0 | 0.00 | 0.00 | 0.00 | 48 | 1035.2 |
| 20260831162342 | 65 | 260 | 0.0 | 4.0 | 0.00 | 0.00 | 0.00 | 47 | 1035.2 |
| 20260831161840 | 65 | 230 | 0.0 | 1.0 | 0.00 | 0.00 | 0.00 | 46 | 1035.4 |
| 20260831161336 | 63 | 346 | 2.0 | 3.0 | 0.00 | 0.00 | 0.00 | 48 | 1035.2 |
| 20260831160831 | 64 | 242 | 0.0 | 1.0 | 0.00 | 0.00 | 0.00 | 49 | 1035.2 |
| 20260831160326 | 63 | 274 | 0.0 | 3.0 | 0.00 | 0.00 | 0.00 | 49 | 1034.9 |
| 20260831155820 | 63 | 254 | 0.0 | 2.0 | 0.00 | 0.00 | 0.00 | 49 | 1035.2 |
| 20260831155315 | 62 | 259 | 0.0 | 3.0 | 0.00 | 0.00 | 0.00 | 48 | 1035.2 |
| 20260831154811 | 64 | 250 | 0.0 | 1.0 | 0.00 | 0.00 | 0.00 | 46 | 1035.2 |
| 20260831154307 | 63 | 246 | 0.0 | 1.0 | 0.00 | 0.00 | 0.00 | 46 | 1034.8 |
| 20260831153805 | 63 | 231 | 1.0 | 3.0 | 0.00 | 0.00 | 0.00 | 46 | 1035.0 |
| 20260831153301 | 63 | 230 | 1.0 | 4.0 | 0.00 | 0.00 | 0.00 | 45 | 1034.9 |
| 20260831152757 | 63 | 236 | 6.0 | 7.0 | 0.00 | 0.00 | 0.00 | 45 | 1034.6 |
| 20260831152253 | 64 | 254 | 1.0 | 3.0 | 0.00 | 0.00 | 0.00 | 46 | 1035.0 |
| 20260831151748 | 64 | 291 | 2.0 | 3.0 | 0.00 | 0.00 | 0.00 | 44 | 1034.6 |
| 20260831151247 | 64 | 223 | 0.0 | 1.0 | 0.00 | 0.00 | 0.00 | 46 | 1034.6 |
| 20260831150742 | 64 | 23 | 2.0 | 3.0 | 0.00 | 0.00 | 0.00 | 50 | 1034.8 |
| 20260831150238 | 65 | 279 | 1.0 | 3.0 | 0.00 | 0.00 | 0.00 | 44 | 1034.8 |
| 20260831145736 | 65 | 234 | 1.0 | 2.0 | 0.00 | 0.00 | 0.00 | 47 | 1034.8 |
| 20260831145233 | 64 | 248 | 1.0 | 2.0 | 0.00 | 0.00 | 0.00 | 45 | 1034.6 |
| 20260831144729 | 62 | 247 | 0.0 | 1.0 | 0.00 | 0.00 | 0.00 | 46 | 1034.9 |
| 20260831144225 | 62 | 237 | 1.0 | 6.0 | 0.00 | 0.00 | 0.00 | 46 | 1035.0 |
| 20260831143724 | 61 | 263 | 0.0 | 0.0 | 0.00 | 0.00 | 0.00 | 47 | 1034.9 |
| 20260831143220 | 61 | 239 | 1.0 | 1.0 | 0.00 | 0.00 | 0.00 | 51 | 1034.8 |
| 20260831142715 | 60 | 257 | 1.0 | 3.0 | 0.00 | 0.00 | 0.00 | 49 | 1034.6 |
| 20260831142211 | 60 | 229 | 2.0 | 2.0 | 0.00 | 0.00 | 0.00 | 51 | 1035.0 |
| 20260831141710 | 59 | 244 | 0.0 | 0.0 | 0.00 | 0.00 | 0.00 | 53 | 1034.8 |
| 20260831141205 | 58 | 250 | 0.0 | 1.0 | 0.00 | 0.00 | 0.00 | 61 | 1034.8 |
| 20260831140704 | 57 | 243 | 1.0 | 2.0 | 0.00 | 0.00 | 0.00 | 58 | 1034.5 |
| 20260831140159 | 56 | 240 | 2.0 | 2.0 | 0.00 | 0.00 | 0.00 | 59 | 1034.6 |
| 20260831135657 | 55 | 233 | 1.0 | 2.0 | 0.00 | 0.00 | 0.00 | 64 | 1034.4 |
| 20260831135153 | 55 | 234 | 1.0 | 2.0 | 0.00 | 0.00 | 0.00 | 62 | 1034.3 |
| 20260831134649 | 55 | 240 | 1.0 | 2.0 | 0.00 | 0.00 | 0.00 | 62 | 1034.1 |
| 20260831134144 | 54 | 219 | 2.0 | 2.0 | 0.00 | 0.00 | 0.00 | 63 | 1034.3 |
| 20260831133643 | 54 | 215 | 2.0 | 2.0 | 0.00 | 0.00 | 0.00 | 63 | 1034.0 |
| 20260831133138 | 54 | 237 | 1.0 | 2.0 | 0.00 | 0.00 | 0.00 | 63 | 1034.0 |
| 20260831132634 | 54 | 240 | 1.0 | 1.0 | 0.00 | 0.00 | 0.00 | 61 | 1033.9 |
| 20260831132133 | 54 | 232 | 2.0 | 2.0 | 0.00 | 0.00 | 0.00 | 59 | 1033.9 |
| 20260831131628 | 55 | 218 | 2.0 | 3.0 | 0.00 | 0.00 | 0.00 | 57 | 1033.9 |
| 20260831131124 | 55 | 233 | 2.0 | 3.0 | 0.00 | 0.00 | 0.00 | 54 | 1033.7 |
| 20260831130619 | 55 | 222 | 1.0 | 3.0 | 0.00 | 0.00 | 0.00 | 53 | 1033.6 |
| 20260831130115 | 55 | 235 | 1.0 | 1.0 | 0.00 | 0.00 | 0.00 | 57 | 1033.5 |
| 20260831125613 | 55 | 222 | 2.0 | 2.0 | 0.00 | 0.00 | 0.00 | 56 | 1033.6 |
| 20260831125109 | 55 | 223 | 2.0 | 3.0 | 0.00 | 0.00 | 0.00 | 56 | 1033.7 |
| 20260831124605 | 53 | 228 | 2.0 | 3.0 | 0.00 | 0.00 | 0.00 | 57 | 1033.5 |
| 20260831124101 | 54 | 222 | 2.0 | 3.0 | 0.00 | 0.00 | 0.00 | 57 | 1033.3 |
| 20260831123600 | 53 | 226 | 2.0 | 3.0 | 0.00 | 0.00 | 0.00 | 60 | 1033.6 |
| 20260831123054 | 54 | 213 | 2.0 | 3.0 | 0.00 | 0.00 | 0.00 | 58 | 1033.5 |
| 20260831122549 | 54 | 218 | 2.0 | 3.0 | 0.00 | 0.00 | 0.00 | 58 | 1033.3 |
| 20260831122044 | 55 | 242 | 1.0 | 3.0 | 0.00 | 0.00 | 0.00 | 57 | 1033.2 |
| 20260831121539 | 56 | 211 | 2.0 | 3.0 | 0.00 | 0.00 | 0.00 | 56 | 1033.1 |
| 20260831121035 | 55 | 189 | 4.0 | 4.0 | 0.00 | 0.00 | 0.00 | 53 | 1033.1 |
| 20260831120534 | 55 | 224 | 2.0 | 4.0 | 0.00 | 0.00 | 0.00 | 54 | 1033.2 |
| 20260831120030 | 55 | 218 | 2.0 | 3.0 | 0.00 | 0.00 | 0.00 | 55 | 1032.9 |
| 20260831115526 | 55 | 196 | 2.0 | 4.0 | 0.00 | 0.00 | 0.00 | 56 | 1033.2 |
| 20260831115021 | 55 | 217 | 2.0 | 6.0 | 0.00 | 0.00 | 0.00 | 59 | 1033.1 |
| 20260831114520 | 54 | 212 | 3.0 | 3.0 | 0.00 | 0.00 | 0.00 | 56 | 1032.9 |
| 20260831114016 | 53 | 201 | 3.0 | 4.0 | 0.00 | 0.00 | 0.00 | 58 | 1032.9 |
| 20260831113514 | 54 | 208 | 3.0 | 3.0 | 0.00 | 0.00 | 0.00 | 59 | 1033.2 |
| 20260831113010 | 54 | 216 | 2.0 | 3.0 | 0.00 | 0.00 | 0.00 | 58 | 1033.3 |
| 20260831112509 | 54 | 211 | 3.0 | 3.0 | 0.00 | 0.00 | 0.00 | 59 | 1032.8 |
| 20260831112004 | 54 | 232 | 3.0 | 3.0 | 0.00 | 0.00 | 0.00 | 55 | 1032.9 |
| 20260831111501 | 55 | 202 | 3.0 | 4.0 | 0.00 | 0.00 | 0.00 | 57 | 1033.2 |
| 20260831110956 | 54 | 210 | 3.0 | 3.0 | 0.00 | 0.00 | 0.00 | 61 | 1033.1 |
| 20260831110451 | 55 | 218 | 3.0 | 4.0 | 0.00 | 0.00 | 0.00 | 56 | 1032.7 |
| 20260831105950 | 54 | 207 | 2.0 | 3.0 | 0.00 | 0.00 | 0.00 | 59 | 1032.8 |
| 20260831105445 | 54 | 232 | 2.0 | 4.0 | 0.00 | 0.00 | 0.00 | 57 | 1032.9 |
| 20260831104945 | 54 | 202 | 3.0 | 3.0 | 0.00 | 0.00 | 0.00 | 56 | 1032.9 |
| 20260831104442 | 54 | 217 | 4.0 | 4.0 | 0.00 | 0.00 | 0.00 | 55 | 1032.8 |
| 20260831103937 | 52 | 242 | 3.0 | 4.0 | 0.00 | 0.00 | 0.00 | 58 | 1033.1 |
| 20260831103432 | 52 | 212 | 3.0 | 3.0 | 0.00 | 0.00 | 0.00 | 61 | 1032.7 |
| 20260831102928 | 52 | 205 | 2.0 | 3.0 | 0.00 | 0.00 | 0.00 | 64 | 1032.8 |
| 20260831102427 | 52 | 237 | 0.0 | 1.0 | 0.00 | 0.00 | 0.00 | 58 | 1032.5 |
| 20260831101922 | 51 | 230 | 2.0 | 3.0 | 0.00 | 0.00 | 0.00 | 64 | 1032.8 |
| 20260831101418 | 51 | 208 | 3.0 | 3.0 | 0.00 | 0.00 | 0.00 | 66 | 1032.8 |
| 20260831100914 | 51 | 204 | 3.0 | 3.0 | 0.00 | 0.00 | 0.00 | 65 | 1032.5 |
| 20260831100409 | 51 | 209 | 3.0 | 3.0 | 0.00 | 0.00 | 0.00 | 65 | 1032.5 |
| 20260831095904 | 51 | 205 | 3.0 | 3.0 | 0.00 | 0.00 | 0.00 | 65 | 1032.4 |
| 20260831095403 | 51 | 208 | 3.0 | 3.0 | 0.00 | 0.00 | 0.00 | 65 | 1032.5 |
| 20260831094859 | 51 | 205 | 3.0 | 3.0 | 0.00 | 0.00 | 0.00 | 67 | 1032.3 |
| 20260831094354 | 50 | 209 | 3.0 | 3.0 | 0.00 | 0.00 | 0.00 | 67 | 1032.4 |
| 20260831093850 | 50 | 204 | 3.0 | 3.0 | 0.00 | 0.00 | 0.00 | 68 | 1032.1 |
| 20260831093345 | 51 | 212 | 2.0 | 3.0 | 0.00 | 0.00 | 0.00 | 67 | 1032.3 |
| 20260831092842 | 51 | 209 | 3.0 | 3.0 | 0.00 | 0.00 | 0.00 | 66 | 1032.1 |
| 20260831092337 | 51 | 221 | 2.0 | 3.0 | 0.00 | 0.00 | 0.00 | 66 | 1032.1 |
| 20260831091832 | 52 | 226 | 2.0 | 2.0 | 0.00 | 0.00 | 0.00 | 66 | 1032.3 |
| 20260831091328 | 52 | 236 | 1.0 | 2.0 | 0.00 | 0.00 | 0.00 | 67 | 1032.1 |
| 20260831090822 | 53 | 245 | 1.0 | 2.0 | 0.00 | 0.00 | 0.00 | 64 | 1032.1 |
| 20260831090318 | 53 | 226 | 2.0 | 2.0 | 0.00 | 0.00 | 0.00 | 65 | 1032.0 |
| 20260831085814 | 52 | 238 | 3.0 | 4.0 | 0.00 | 0.00 | 0.00 | 66 | 1032.0 |
| 20260831085309 | 53 | 228 | 2.0 | 4.0 | 0.00 | 0.00 | 0.00 | 63 | 1032.0 |
| 20260831084804 | 52 | 219 | 2.0 | 4.0 | 0.00 | 0.00 | 0.00 | 63 | 1032.1 |
| 20260831084300 | 51 | 240 | 1.0 | 3.0 | 0.00 | 0.00 | 0.00 | 69 | 1032.1 |
| 20260831083755 | 51 | 210 | 2.0 | 4.0 | 0.00 | 0.00 | 0.00 | 68 | 1032.3 |
| 20260831083246 | 51 | 226 | 2.0 | 2.0 | 0.00 | 0.00 | 0.00 | 67 | 1032.0 |
| 20260831082744 | 51 | 220 | 2.0 | 3.0 | 0.00 | 0.00 | 0.00 | 68 | 1032.3 |
| 20260831082239 | 51 | 212 | 2.0 | 3.0 | 0.00 | 0.00 | 0.00 | 67 | 1032.3 |
| 20260831081735 | 51 | 213 | 3.0 | 3.0 | 0.00 | 0.00 | 0.00 | 68 | 1032.4 |
| 20260831081230 | 51 | 219 | 2.0 | 3.0 | 0.00 | 0.00 | 0.00 | 65 | 1032.5 |
| 20260831080725 | 51 | 211 | 3.0 | 3.0 | 0.00 | 0.00 | 0.00 | 65 | 1032.3 |
| 20260831080220 | 51 | 227 | 1.0 | 3.0 | 0.00 | 0.00 | 0.00 | 68 | 1032.4 |
| 20260831075716 | 51 | 224 | 2.0 | 2.0 | 0.00 | 0.00 | 0.00 | 67 | 1032.4 |
| 20260831075211 | 52 | 217 | 2.0 | 3.0 | 0.00 | 0.00 | 0.00 | 66 | 1032.4 |
| 20260831074710 | 52 | 212 | 2.0 | 3.0 | 0.00 | 0.00 | 0.00 | 67 | 1032.7 |
| 20260831074204 | 52 | 225 | 2.0 | 2.0 | 0.00 | 0.00 | 0.00 | 65 | 1032.3 |
| 20260831073659 | 52 | 215 | 2.0 | 2.0 | 0.00 | 0.00 | 0.00 | 66 | 1032.7 |
| 20260831073159 | 52 | 240 | 1.0 | 2.0 | 0.00 | 0.00 | 0.00 | 65 | 1032.8 |
| 20260831072654 | 52 | 219 | 2.0 | 3.0 | 0.00 | 0.00 | 0.00 | 64 | 1032.9 |
| 20260831072151 | 52 | 240 | 1.0 | 2.0 | 0.00 | 0.00 | 0.00 | 63 | 1032.7 |
| 20260831071650 | 53 | 238 | 2.0 | 3.0 | 0.00 | 0.00 | 0.00 | 69 | 1032.8 |
| 20260831071145 | 52 | 249 | 0.0 | 2.0 | 0.00 | 0.00 | 0.00 | 66 | 1032.7 |
| 20260831070644 | 53 | 247 | 0.0 | 2.0 | 0.00 | 0.00 | 0.00 | 69 | 1032.9 |
| 20260831070133 | 55 | 198 | 2.0 | 3.0 | 0.00 | 0.00 | 0.00 | 61 | 1032.8 |
| 20260831065631 | 54 | 236 | 2.0 | 3.0 | 0.00 | 0.00 | 0.00 | 61 | 1032.7 |
| 20260831065125 | 53 | 229 | 2.0 | 3.0 | 0.00 | 0.00 | 0.00 | 66 | 1032.8 |
| 20260831064620 | 53 | 220 | 2.0 | 3.0 | 0.00 | 0.00 | 0.00 | 67 | 1033.1 |
| 20260831064116 | 53 | 218 | 2.0 | 3.0 | 0.00 | 0.00 | 0.00 | 65 | 1033.1 |
| 20260831063612 | 54 | 210 | 2.0 | 3.0 | 0.00 | 0.00 | 0.00 | 64 | 1032.9 |
| 20260831063106 | 53 | 213 | 2.0 | 3.0 | 0.00 | 0.00 | 0.00 | 63 | 1033.1 |
| 20260831062601 | 53 | 210 | 2.0 | 3.0 | 0.00 | 0.00 | 0.00 | 66 | 1033.1 |
| 20260831062100 | 54 | 215 | 2.0 | 3.0 | 0.00 | 0.00 | 0.00 | 61 | 1033.3 |
| 20260831061558 | 55 | 194 | 3.0 | 3.0 | 0.00 | 0.00 | 0.00 | 59 | 1033.5 |
| 20260831061055 | 55 | 246 | 2.0 | 3.0 | 0.00 | 0.00 | 0.00 | 59 | 1033.2 |
| 20260831060550 | 54 | 228 | 2.0 | 4.0 | 0.00 | 0.00 | 0.00 | 62 | 1033.6 |
| 20260831060045 | 55 | 235 | 2.0 | 4.0 | 0.00 | 0.00 | 0.00 | 61 | 1033.3 |
| 20260831055539 | 54 | 203 | 2.0 | 3.0 | 0.00 | 0.10 | 0.10 | 62 | 1033.6 |
| 20260831055035 | 54 | 220 | 2.0 | 6.0 | 0.00 | 0.10 | 0.10 | 62 | 1033.7 |
| 20260831054534 | 54 | 242 | 2.0 | 3.0 | 0.00 | 0.10 | 0.10 | 60 | 1033.9 |
| 20260831054033 | 54 | 221 | 2.0 | 3.0 | 0.00 | 0.10 | 0.10 | 60 | 1033.9 |
| 20260831053532 | 55 | 219 | 2.0 | 3.0 | 0.00 | 0.10 | 0.10 | 59 | 1033.6 |
| 20260831053027 | 55 | 219 | 5.0 | 6.0 | 0.00 | 0.10 | 0.10 | 58 | 1033.7 |
| 20260831052526 | 55 | 236 | 3.0 | 3.0 | 0.00 | 0.10 | 0.10 | 58 | 1033.7 |
| 20260831052021 | 56 | 238 | 3.0 | 4.0 | 0.00 | 0.10 | 0.10 | 58 | 1033.7 |
| 20260831051518 | 56 | 225 | 2.0 | 9.0 | 0.00 | 0.10 | 0.10 | 59 | 1033.6 |
| 20260831051012 | 56 | 259 | 2.0 | 6.0 | 0.00 | 0.10 | 0.10 | 56 | 1033.9 |
| 20260831050512 | 56 | 222 | 3.0 | 6.0 | 0.00 | 0.10 | 0.10 | 57 | 1034.0 |
| 20260831050011 | 56 | 242 | 3.0 | 6.0 | 0.00 | 0.10 | 0.10 | 57 | 1033.9 |
| 20260831045510 | 57 | 237 | 4.0 | 9.0 | 0.00 | 0.10 | 0.10 | 56 | 1034.4 |
| 20260831045006 | 57 | 268 | 5.0 | 7.0 | 0.00 | 0.10 | 0.10 | 55 | 1034.4 |
| 20260831044501 | 57 | 264 | 4.0 | 7.0 | 0.00 | 0.10 | 0.10 | 55 | 1034.6 |
| 20260831043956 | 56 | 219 | 11.0 | 13.0 | 0.00 | 0.10 | 0.10 | 55 | 1034.8 |
| 20260831043455 | 56 | 237 | 2.0 | 2.0 | 0.00 | 0.10 | 0.10 | 62 | 1034.5 |
| 20260831042951 | 57 | 292 | 0.0 | 2.0 | 0.00 | 0.10 | 0.10 | 58 | 1034.8 |
| 20260831042450 | 58 | 225 | 2.0 | 4.0 | 0.00 | 0.10 | 0.10 | 53 | 1034.8 |
| 20260831041945 | 57 | 259 | 3.0 | 4.0 | 0.00 | 0.10 | 0.10 | 54 | 1034.5 |
| 20260831041439 | 57 | 212 | 4.0 | 8.0 | 0.00 | 0.10 | 0.10 | 53 | 1034.4 |
| 20260831040934 | 56 | 224 | 2.0 | 6.0 | 0.00 | 0.10 | 0.10 | 58 | 1034.1 |
| 20260831040429 | 56 | 214 | 3.0 | 3.0 | 0.00 | 0.10 | 0.10 | 55 | 1034.3 |
| 20260831035926 | 56 | 210 | 3.0 | 3.0 | 0.00 | 0.10 | 0.10 | 54 | 1033.9 |
| 20260831035426 | 56 | 224 | 2.0 | 3.0 | 0.00 | 0.10 | 0.10 | 58 | 1034.0 |
| 20260831034921 | 55 | 221 | 2.0 | 2.0 | 0.00 | 0.10 | 0.10 | 60 | 1033.6 |
| 20260831034416 | 57 | 245 | 1.0 | 2.0 | 0.00 | 0.10 | 0.10 | 57 | 1033.6 |
| 20260831033911 | 58 | 222 | 2.0 | 3.0 | 0.00 | 0.10 | 0.10 | 52 | 1033.5 |
| 20260831033407 | 58 | 224 | 2.0 | 4.0 | 0.00 | 0.10 | 0.10 | 49 | 1033.6 |
| 20260831032902 | 58 | 247 | 1.0 | 2.0 | 0.00 | 0.10 | 0.10 | 50 | 1033.3 |
| 20260831032356 | 59 | 208 | 2.0 | 7.0 | 0.00 | 0.10 | 0.10 | 51 | 1033.6 |
| 20260831031852 | 58 | 250 | 2.0 | 4.0 | 0.00 | 0.10 | 0.10 | 50 | 1033.5 |
| 20260831031351 | 57 | 240 | 2.0 | 4.0 | 0.00 | 0.10 | 0.10 | 51 | 1033.5 |
| 20260831030846 | 56 | 234 | 2.0 | 4.0 | 0.00 | 0.10 | 0.10 | 58 | 1033.5 |
| 20260831030344 | 55 | 269 | 1.0 | 3.0 | 0.00 | 0.10 | 0.10 | 56 | 1033.3 |
| 20260831025843 | 54 | 247 | 0.0 | 0.0 | 0.00 | 0.10 | 0.10 | 65 | 1033.5 |
| 20260831025343 | 53 | 250 | 0.0 | 3.0 | 0.00 | 0.10 | 0.10 | 68 | 1033.3 |
| 20260831024838 | 53 | 222 | 2.0 | 3.0 | 0.00 | 0.10 | 0.10 | 64 | 1033.2 |
| 20260831024337 | 54 | 232 | 2.0 | 3.0 | 0.00 | 0.10 | 0.10 | 63 | 1033.2 |